Powrót do katalogu

OPS 6157

AktywnyMilitariaGEO
NORAD 6691·PAYLOAD·🇺🇸 United States

Wystrzelony Jun 12, 1973 z Cape Canaveral Space Force Station

Loading…

TLE

ŚwieżeSource: Space-Track

Epoka: Sep 14, 2026, 13:24 UTC

1 06691U 73040A   26257.55846213  .00000115  00000-0  00000-0 0  9999
2 06691   0.7747 207.1915 0006810  68.7857 139.1253  0.99818501 26834

Śledź OPS 6157 w czasie rzeczywistym z AllMySat

Download on the App Store